Tracking 30744 objects as of 23-Jun-2025
HD Live streaming from Space Station
objects crossing your sky now

FORMOSAT7-3/COSMIC2-3

Track FORMOSAT7-3/COSMIC2-3 now!
10-day predictions


NORAD ID: 44343
Int'l Code: 2019-036E
Perigee: 555.7 km
Apogee: 556.7 km
Inclination: 24.0 °
Period: 95.6 minutes
Semi major axis: 6927 km
RCS: Unknown
Launch date: June 25, 2019
Source: Taiwan (Republic of China) (ROC)
Launch site: AIR FORCE EASTERN TEST RANGE (AFETR)
Your satellite tracking list
Your tracking list is empty




NASA's NSSDC Master Catalog

Two Line Element Set (TLE):
1 44343U 19036E   25174.51711914  .00002926  00000-0  17453-3 0  9997
2 44343  23.9984 119.6451 0000735 359.8176   0.2327 15.05793081329148
Source of the keplerian elements: AFSPC